• In Czech Republic
  • List of Countries
  • For 7 days
  • Water Temperature
  • Satellite Maps
  • Weather Map
  • Weather Widgets
  • user-avatar
    Login

    Hourly Weather Kushnur

    Today, 19 April, Thursday

    Time Temperature Precipitation Wind Pressure Humidity
    00:00 +3°C° 0 mm 3 mps 746 mmHg 94%
    01:00 +3°C° 0.1 mm 3 mps 745 mmHg 95%
    02:00 +3°C° 0.1 mm 3 mps 745 mmHg 95%
    03:00 +3°C° 0 mm 3 mps 744 mmHg 97%
    04:00 +3°C° 0.5 mm 3 mps 744 mmHg 97%
    05:00 +3°C° 0.5 mm 3 mps 743 mmHg 97%
    06:00 +4°C° 0.5 mm 4 mps 743 mmHg 97%
    07:00 +4°C° 0.7 mm 4 mps 742 mmHg 97%
    08:00 +4°C° 0.7 mm 4 mps 742 mmHg 97%
    09:00 +4°C° 0 mm 4 mps 741 mmHg 96%
    10:00 +4°C° 0.4 mm 4 mps 741 mmHg 95%
    11:00 +5°C° 0.4 mm 4 mps 741 mmHg 95%
    12:00 +5°C° 0.4 mm 4 mps 741 mmHg 94%
    13:00 +5°C° 0.1 mm 3 mps 741 mmHg 94%
    14:00 +5°C° 0.1 mm 3 mps 741 mmHg 94%
    15:00 +7°C° 0.1 mm 3 mps 741 mmHg 94%
    16:00 +5°C° 0.1 mm 3 mps 741 mmHg 95%
    17:00 +6°C° 0.1 mm 2 mps 741 mmHg 96%
    18:00 +6°C° 0.1 mm 2 mps 740 mmHg 96%
    19:00 +5°C° 0.2 mm 2 mps 740 mmHg 97%
    20:00 +5°C° 0.2 mm 2 mps 740 mmHg 97%
    21:00 +5°C° 0.2 mm 2 mps 740 mmHg 97%
    22:00 +4°C° 0.5 mm 3 mps 740 mmHg 97%
    23:00 +4°C° 0.5 mm 3 mps 740 mmHg 97%

    Tomorrow, 20 April, Friday

    Time Temperature Precipitation Wind Pressure Humidity
    00:00 +3°C° 0.5 mm 3 mps 741 mmHg 96%
    01:00 +3°C° 0.6 mm 3 mps 741 mmHg 96%
    02:00 +3°C° 0.6 mm 4 mps 741 mmHg 95%
    03:00 +3°C° 0.6 mm 4 mps 741 mmHg 94%
    04:00 +2°C° 0.5 mm 5 mps 741 mmHg 92%
    05:00 +2°C° 0.5 mm 5 mps 742 mmHg 91%
    06:00 +1°C° 0.5 mm 6 mps 742 mmHg 89%
    07:00 +2°C° 0.1 mm 6 mps 743 mmHg 84%
    08:00 +2°C° 0.1 mm 6 mps 743 mmHg 78%
    09:00 +3°C° 0.1 mm 7 mps 744 mmHg 73%
    10:00 +3°C° 0 mm 7 mps 744 mmHg 69%
    11:00 +3°C° 0 mm 7 mps 745 mmHg 65%
    12:00 +3°C° 0 mm 7 mps 745 mmHg 61%
    13:00 +3°C° 0 mm 6 mps 746 mmHg 59%
    14:00 +3°C° 0 mm 6 mps 746 mmHg 58%
    15:00 +2°C° 0 mm 6 mps 746 mmHg 56%
    16:00 +2°C° 0 mm 6 mps 746 mmHg 57%
    17:00 +1°C° 0 mm 5 mps 747 mmHg 59%
    18:00 0°C° 0 mm 5 mps 747 mmHg 60%
    19:00 0°C° 0 mm 4 mps 747 mmHg 62%
    20:00 -1°C° 0 mm 4 mps 748 mmHg 64%
    21:00 -1°C° 0 mm 3 mps 748 mmHg 66%
    22:00 -1°C° 0 mm 3 mps 748 mmHg 69%
    23:00 -2°C° 0 mm 2 mps 748 mmHg 72%

    Day after tomorrow, 21 April, Saturday

    Time Temperature Precipitation Wind Pressure Humidity
    00:00 -3°C° 0 mm 2 mps 748 mmHg 75%
    01:00 -3°C° 0 mm 2 mps 748 mmHg 76%
    02:00 -2°C° 0 mm 1 mps 748 mmHg 77%
    03:00 -2°C° 0 mm 1 mps 748 mmHg 78%
    04:00 -2°C° 0 mm 1 mps 748 mmHg 74%
    05:00 -2°C° 0 mm 0 mps 748 mmHg 70%
    06:00 -2°C° 0 mm 0 mps 747 mmHg 66%
    07:00 +1°C° 0 mm 1 mps 747 mmHg 59%
    08:00 +2°C° 0 mm 1 mps 746 mmHg 52%
    09:00 +2°C° 0 mm 2 mps 746 mmHg 45%
    10:00 +2°C° 0 mm 3 mps 745 mmHg 43%
    11:00 +3°C° 0 mm 3 mps 745 mmHg 42%
    12:00 +4°C° 0 mm 4 mps 744 mmHg 41%
    13:00 +3°C° 0.2 mm 4 mps 743 mmHg 46%
    14:00 +2°C° 0.2 mm 5 mps 742 mmHg 50%
    15:00 +2°C° 0.2 mm 5 mps 741 mmHg 55%
    16:00 +1°C° 0.6 mm 5 mps 740 mmHg 61%
    17:00 +1°C° 0.6 mm 6 mps 739 mmHg 66%
    18:00 -1°C° 0.6 mm 6 mps 738 mmHg 72%
    19:00 +1°C° 1 mm 6 mps 737 mmHg 74%
    20:00 0°C° 1 mm 7 mps 736 mmHg 77%
    21:00 0°C° 1 mm 7 mps 734 mmHg 79%
    22:00 +2°C° 2.6 mm 7 mps 733 mmHg 83%
    23:00 +2°C° 2.6 mm 7 mps 732 mmHg 86%

    22 April, Sunday

    Time Temperature Precipitation Wind Pressure Humidity
    00:00 +3°C° 2.6 mm 7 mps 730 mmHg 90%
    01:00 +4°C° 1.9 mm 7 mps 730 mmHg 91%
    02:00 +4°C° 1.9 mm 6 mps 729 mmHg 93%
    03:00 +4°C° 1.9 mm 6 mps 728 mmHg 94%
    04:00 +4°C° 1.2 mm 6 mps 728 mmHg 95%
    05:00 +5°C° 1.2 mm 5 mps 727 mmHg 95%
    06:00 +5°C° 1.2 mm 5 mps 727 mmHg 95%
    07:00 +6°C° 0.2 mm 5 mps 727 mmHg 91%
    08:00 +6°C° 0.2 mm 5 mps 727 mmHg 86%
    09:00 +6°C° 0.2 mm 5 mps 727 mmHg 82%
    10:00 +6°C° 0.1 mm 5 mps 727 mmHg 81%
    11:00 +6°C° 0.1 mm 5 mps 728 mmHg 79%
    12:00 +7°C° 0.1 mm 5 mps 728 mmHg 78%
    13:00 +6°C° 0.3 mm 5 mps 728 mmHg 79%
    14:00 +6°C° 0.3 mm 5 mps 729 mmHg 79%
    15:00 +6°C° 0.3 mm 5 mps 729 mmHg 80%
    16:00 +5°C° 0.3 mm 5 mps 730 mmHg 83%
    17:00 +3°C° 0.3 mm 5 mps 731 mmHg 86%
    18:00 +2°C° 0.3 mm 5 mps 731 mmHg 89%
    19:00 +1°C° 0.1 mm 5 mps 732 mmHg 89%
    20:00 0°C° 0.1 mm 5 mps 732 mmHg 88%
    21:00 -1°C° 0.1 mm 5 mps 733 mmHg 88%
    22:00 -1°C° 0.2 mm 5 mps 733 mmHg 88%
    23:00 -1°C° 0.2 mm 5 mps 734 mmHg 88%

    23 April, Monday

    Time Temperature Precipitation Wind Pressure Humidity
    00:00 -2°C° 0.2 mm 5 mps 734 mmHg 88%
    01:00 -2°C° 0.1 mm 5 mps 735 mmHg 88%
    02:00 -2°C° 0.1 mm 5 mps 735 mmHg 87%
    03:00 -4°C° 0.1 mm 5 mps 736 mmHg 87%
    04:00 -4°C° 0.2 mm 5 mps 736 mmHg 87%
    05:00 -4°C° 0.2 mm 5 mps 737 mmHg 87%
    06:00 -4°C° 0.2 mm 5 mps 738 mmHg 86%
    07:00 -4°C° 0.1 mm 5 mps 738 mmHg 84%
    08:00 -4°C° 0.1 mm 5 mps 739 mmHg 81%
    09:00 -2°C° 0.1 mm 5 mps 739 mmHg 79%
    10:00 -2°C° 0.1 mm 5 mps 740 mmHg 77%
    11:00 -2°C° 0.1 mm 5 mps 740 mmHg 76%
    12:00 -1°C° 0.1 mm 5 mps 741 mmHg 75%
    13:00 -1°C° 0.1 mm 5 mps 742 mmHg 74%
    14:00 -1°C° 0.1 mm 5 mps 742 mmHg 73%
    15:00 -1°C° 0.1 mm 5 mps 742 mmHg 73%
    16:00 -1°C° 0.1 mm 4 mps 743 mmHg 74%
    17:00 -1°C° 0.1 mm 4 mps 743 mmHg 76%
    18:00 -1°C° 0.1 mm 4 mps 743 mmHg 78%
    19:00 -2°C° 0 mm 4 mps 744 mmHg 81%
    20:00 -2°C° 0 mm 3 mps 744 mmHg 85%
    21:00 -2°C° 0 mm 3 mps 744 mmHg 88%
    22:00 -4°C° 0 mm 3 mps 744 mmHg 89%
    23:00 -4°C° 0 mm 3 mps 744 mmHg 89%

    24 April, Tuesday

    Time Temperature Precipitation Wind Pressure Humidity
    00:00 -4°C° 0 mm 3 mps 744 mmHg 89%
    01:00 -4°C° 0 mm 3 mps 744 mmHg 89%
    02:00 -5°C° 0 mm 3 mps 744 mmHg 89%
    03:00 -5°C° 0 mm 3 mps 745 mmHg 89%
    04:00 -5°C° 0 mm 3 mps 745 mmHg 87%
    05:00 -5°C° 0 mm 3 mps 745 mmHg 85%
    06:00 -5°C° 0 mm 4 mps 745 mmHg 83%
    07:00 -3°C° 0 mm 4 mps 745 mmHg 74%
    08:00 -2°C° 0 mm 4 mps 745 mmHg 65%
    09:00 0°C° 0 mm 5 mps 746 mmHg 56%
    10:00 0°C° 0 mm 5 mps 746 mmHg 54%
    11:00 +1°C° 0 mm 5 mps 746 mmHg 52%
    12:00 +2°C° 0 mm 5 mps 746 mmHg 50%
    13:00 +2°C° 0 mm 5 mps 746 mmHg 51%
    14:00 +2°C° 0 mm 5 mps 746 mmHg 52%
    15:00 +2°C° 0 mm 5 mps 746 mmHg 53%
    16:00 +3°C° 0 mm 4 mps 746 mmHg 57%
    17:00 +1°C° 0 mm 4 mps 747 mmHg 61%
    18:00 +1°C° 0 mm 3 mps 747 mmHg 66%
    19:00 +1°C° 0 mm 2 mps 747 mmHg 71%
    20:00 -1°C° 0 mm 2 mps 747 mmHg 75%
    21:00 -2°C° 0 mm 2 mps 748 mmHg 80%
    22:00 0°C° 0 mm 1 mps 747 mmHg 82%
    23:00 -1°C° 0 mm 1 mps 747 mmHg 84%
    Show more